Year,Month,Day,Hour,Minute,Value (Times are PST for temperature in C)
2009,04,21,00,00,10.90
2009,04,21,00,01,10.90
2009,04,21,00,02,10.90
2009,04,21,00,03,10.90
2009,04,21,00,04,10.90
2009,04,21,00,05,10.90
2009,04,21,00,06,10.90
2009,04,21,00,07,10.90
2009,04,21,00,08,10.90
2009,04,21,00,09,10.90
2009,04,21,00,10,10.90
2009,04,21,00,11,10.90
2009,04,21,00,12,10.90
2009,04,21,00,13,10.90
2009,04,21,00,14,10.90
2009,04,21,00,15,10.90
2009,04,21,00,16,10.90
2009,04,21,00,17,10.90
2009,04,21,00,18,10.90
2009,04,21,00,19,10.90
2009,04,21,00,20,10.90
2009,04,21,00,21,10.90
2009,04,21,00,22,10.90
2009,04,21,00,23,10.90
2009,04,21,00,24,10.90
2009,04,21,00,25,10.90
2009,04,21,00,26,10.90
2009,04,21,00,27,10.90
2009,04,21,00,28,10.90
2009,04,21,00,29,10.90
2009,04,21,00,30,10.90
2009,04,21,00,31,10.90
2009,04,21,00,32,10.90
2009,04,21,00,33,10.80
2009,04,21,00,34,10.80
2009,04,21,00,35,10.80
2009,04,21,00,36,10.80
2009,04,21,00,37,10.80
2009,04,21,00,38,10.80
2009,04,21,00,39,10.80
2009,04,21,00,40,10.80
2009,04,21,00,41,10.80
2009,04,21,00,42,10.80
2009,04,21,00,43,10.80
2009,04,21,00,44,10.80
2009,04,21,00,45,10.70
2009,04,21,00,46,10.70
2009,04,21,00,47,10.70
2009,04,21,00,48,10.70
2009,04,21,00,49,10.70
2009,04,21,00,50,10.70
2009,04,21,00,51,10.70
2009,04,21,00,52,10.70
2009,04,21,00,53,10.60
2009,04,21,00,54,10.60
2009,04,21,00,55,10.60
2009,04,21,00,56,10.60
2009,04,21,00,57,10.60
2009,04,21,00,58,10.60
2009,04,21,00,59,10.60
2009,04,21,01,00,10.60
2009,04,21,01,01,10.60
2009,04,21,01,02,10.60
2009,04,21,01,03,10.60
2009,04,21,01,04,10.60
2009,04,21,01,05,10.60
2009,04,21,01,06,10.40
2009,04,21,01,07,10.40
2009,04,21,01,08,10.40
2009,04,21,01,09,10.40
2009,04,21,01,10,10.40
2009,04,21,01,11,10.40
2009,04,21,01,12,10.40
2009,04,21,01,13,10.40
2009,04,21,01,14,10.40
2009,04,21,01,15,10.40
2009,04,21,01,16,10.40
2009,04,21,01,17,10.40
2009,04,21,01,18,10.40
2009,04,21,01,19,10.40
2009,04,21,01,20,10.40
2009,04,21,01,21,10.40
2009,04,21,01,22,10.40
2009,04,21,01,23,10.40
2009,04,21,01,24,10.40
2009,04,21,01,25,10.30
2009,04,21,01,26,10.30
2009,04,21,01,27,10.30
2009,04,21,01,28,10.30
2009,04,21,01,29,10.30
2009,04,21,01,30,10.30
2009,04,21,01,31,10.30
2009,04,21,01,32,10.30
2009,04,21,01,33,10.30
2009,04,21,01,34,10.30
2009,04,21,01,35,10.30
2009,04,21,01,36,10.30
2009,04,21,01,37,10.20
2009,04,21,01,38,10.20
2009,04,21,01,39,10.20
2009,04,21,01,40,10.20
2009,04,21,01,41,10.20
2009,04,21,01,42,10.10
2009,04,21,01,43,10.10
2009,04,21,01,44,10.10
2009,04,21,01,45,10.10
2009,04,21,01,46,10.10
2009,04,21,01,47,10.10
2009,04,21,01,48,10.00
2009,04,21,01,49,9.90
2009,04,21,01,50,9.90
2009,04,21,01,51,9.90
2009,04,21,01,52,9.90
2009,04,21,01,53,9.90
2009,04,21,01,54,9.90
2009,04,21,01,55,9.90
2009,04,21,01,56,9.90
2009,04,21,01,57,9.90
2009,04,21,01,58,9.90
2009,04,21,01,59,9.80
2009,04,21,02,00,9.80
2009,04,21,02,01,9.80
2009,04,21,02,02,9.80
2009,04,21,02,03,9.80
2009,04,21,02,04,9.80
2009,04,21,02,05,9.80
2009,04,21,02,06,9.80
2009,04,21,02,07,9.70
2009,04,21,02,08,9.70
2009,04,21,02,09,9.70
2009,04,21,02,10,9.70
2009,04,21,02,11,9.70
2009,04,21,02,12,9.70
2009,04,21,02,13,9.70
2009,04,21,02,14,9.70
2009,04,21,02,15,9.70
2009,04,21,02,16,9.70
2009,04,21,02,17,9.70
2009,04,21,02,18,9.70
2009,04,21,02,19,9.70
2009,04,21,02,20,9.60
2009,04,21,02,21,9.60
2009,04,21,02,22,9.60
2009,04,21,02,23,9.60
2009,04,21,02,24,9.50
2009,04,21,02,25,9.50
2009,04,21,02,26,9.50
2009,04,21,02,27,9.50
2009,04,21,02,28,9.50
2009,04,21,02,29,9.50
2009,04,21,02,30,9.50
2009,04,21,02,31,9.50
2009,04,21,02,32,9.50
2009,04,21,02,33,9.50
2009,04,21,02,34,9.60
2009,04,21,02,35,9.60
2009,04,21,02,36,9.60
2009,04,21,02,37,9.60
2009,04,21,02,38,9.60
2009,04,21,02,39,9.60
2009,04,21,02,40,9.60
2009,04,21,02,41,9.70
2009,04,21,02,42,9.70
2009,04,21,02,43,9.70
2009,04,21,02,44,9.70
2009,04,21,02,45,9.70
2009,04,21,02,46,9.60
2009,04,21,02,47,9.60
2009,04,21,02,48,9.60
2009,04,21,02,49,9.60
2009,04,21,02,50,9.60
2009,04,21,02,51,9.50
2009,04,21,02,52,9.50
2009,04,21,02,53,9.50
2009,04,21,02,54,9.50
2009,04,21,02,55,9.50
2009,04,21,02,56,9.50
2009,04,21,02,57,9.50
2009,04,21,02,58,9.50
2009,04,21,02,59,9.50
2009,04,21,03,00,9.50
2009,04,21,03,01,9.50
2009,04,21,03,02,9.50
2009,04,21,03,03,9.50
2009,04,21,03,04,9.50
2009,04,21,03,05,9.50
2009,04,21,03,06,9.50
2009,04,21,03,07,9.50
2009,04,21,03,08,9.50
2009,04,21,03,09,9.50
2009,04,21,03,10,9.50
2009,04,21,03,11,9.50
2009,04,21,03,12,9.50
2009,04,21,03,13,9.50
2009,04,21,03,14,9.60
2009,04,21,03,15,9.60
2009,04,21,03,16,9.60
2009,04,21,03,17,9.60
2009,04,21,03,18,9.60
2009,04,21,03,19,9.60
2009,04,21,03,20,9.50
2009,04,21,03,21,9.50
2009,04,21,03,22,9.50
2009,04,21,03,23,9.50
2009,04,21,03,24,9.50
2009,04,21,03,25,9.50
2009,04,21,03,26,9.40
2009,04,21,03,27,9.40
2009,04,21,03,28,9.40
2009,04,21,03,29,9.40
2009,04,21,03,30,9.40
2009,04,21,03,31,9.40
2009,04,21,03,32,9.30
2009,04,21,03,33,9.30
2009,04,21,03,34,9.30
2009,04,21,03,35,9.30
2009,04,21,03,36,9.30
2009,04,21,03,37,9.30
2009,04,21,03,38,9.30
2009,04,21,03,39,9.30
2009,04,21,03,40,9.30
2009,04,21,03,41,9.30
2009,04,21,03,42,9.30
2009,04,21,03,43,9.30
2009,04,21,03,44,9.30
2009,04,21,03,45,9.40
2009,04,21,03,46,9.40
2009,04,21,03,47,9.40
2009,04,21,03,48,9.40
2009,04,21,03,49,9.40
2009,04,21,03,50,9.40
2009,04,21,03,51,9.40
2009,04,21,03,52,9.40
2009,04,21,03,53,9.40
2009,04,21,03,54,9.40
2009,04,21,03,55,9.40
2009,04,21,03,56,9.50
2009,04,21,03,57,9.50
2009,04,21,03,58,9.50
2009,04,21,03,59,9.50
2009,04,21,04,00,9.50
2009,04,21,04,01,9.50
2009,04,21,04,02,9.50
2009,04,21,04,03,9.50
2009,04,21,04,04,9.50
2009,04,21,04,05,9.50
2009,04,21,04,06,9.50
2009,04,21,04,07,9.50
2009,04,21,04,08,9.50
2009,04,21,04,09,9.50
2009,04,21,04,10,9.50
2009,04,21,04,11,9.50
2009,04,21,04,12,9.50
2009,04,21,04,13,9.50
2009,04,21,04,14,9.50
2009,04,21,04,15,9.50
2009,04,21,04,16,9.60
2009,04,21,04,17,9.60
2009,04,21,04,18,9.60
2009,04,21,04,19,9.60
2009,04,21,04,20,9.60
2009,04,21,04,21,9.60
2009,04,21,04,22,9.50
2009,04,21,04,23,9.50
2009,04,21,04,24,9.50
2009,04,21,04,25,9.50
2009,04,21,04,26,9.40
2009,04,21,04,27,9.40
2009,04,21,04,28,9.30
2009,04,21,04,29,9.30
2009,04,21,04,30,9.30
2009,04,21,04,31,9.20
2009,04,21,04,32,9.20
2009,04,21,04,33,9.10
2009,04,21,04,34,9.10
2009,04,21,04,35,9.00
2009,04,21,04,36,8.90
2009,04,21,04,37,8.90
2009,04,21,04,38,8.90
2009,04,21,04,39,8.80
2009,04,21,04,40,8.80
2009,04,21,04,41,8.70
2009,04,21,04,42,8.70
2009,04,21,04,43,8.70
2009,04,21,04,44,8.70
2009,04,21,04,45,8.60
2009,04,21,04,46,8.60
2009,04,21,04,47,8.60
2009,04,21,04,48,8.60
2009,04,21,04,49,8.60
2009,04,21,04,50,8.60
2009,04,21,04,51,8.60
2009,04,21,04,52,8.60
2009,04,21,04,53,8.50
2009,04,21,04,54,8.50
2009,04,21,04,55,8.50
2009,04,21,04,56,8.50
2009,04,21,04,57,8.50
2009,04,21,04,58,8.50
2009,04,21,04,59,8.50
2009,04,21,05,00,8.50
2009,04,21,05,01,8.50
2009,04,21,05,02,8.50
2009,04,21,05,03,8.50
2009,04,21,05,04,8.40
2009,04,21,05,05,8.40
2009,04,21,05,06,8.40
2009,04,21,05,07,8.40
2009,04,21,05,08,8.40
2009,04,21,05,09,8.30
2009,04,21,05,10,8.30
2009,04,21,05,11,8.30
2009,04,21,05,12,8.30
2009,04,21,05,13,8.20
2009,04,21,05,14,8.20
2009,04,21,05,15,8.20
2009,04,21,05,16,8.20
2009,04,21,05,17,8.20
2009,04,21,05,18,8.20
2009,04,21,05,19,8.20
2009,04,21,05,20,8.10
2009,04,21,05,21,8.10
2009,04,21,05,22,8.10
2009,04,21,05,23,8.00
2009,04,21,05,24,8.00
2009,04,21,05,25,8.00
2009,04,21,05,26,8.00
2009,04,21,05,27,8.00
2009,04,21,05,28,8.00
2009,04,21,05,29,8.00
2009,04,21,05,30,8.00
2009,04,21,05,31,8.00
2009,04,21,05,32,8.00
2009,04,21,05,33,8.00
2009,04,21,05,34,8.00
2009,04,21,05,35,8.00
2009,04,21,05,36,8.00
2009,04,21,05,37,8.00
2009,04,21,05,38,8.00
2009,04,21,05,39,8.00
2009,04,21,05,40,8.00
2009,04,21,05,41,8.00
2009,04,21,05,42,8.00
2009,04,21,05,43,8.00
2009,04,21,05,44,8.00
2009,04,21,05,45,7.90
2009,04,21,05,46,7.90
2009,04,21,05,47,7.90
2009,04,21,05,48,7.90
2009,04,21,05,49,7.90
2009,04,21,05,50,7.80
2009,04,21,05,51,7.80
2009,04,21,05,52,7.80
2009,04,21,05,53,7.80
2009,04,21,05,54,7.80
2009,04,21,05,55,7.80
2009,04,21,05,56,7.80
2009,04,21,05,57,7.80
2009,04,21,05,58,7.80
2009,04,21,05,59,7.70
2009,04,21,06,00,7.70
2009,04,21,06,01,7.70
2009,04,21,06,02,7.60
2009,04,21,06,03,7.60
2009,04,21,06,04,7.60
2009,04,21,06,05,7.60
2009,04,21,06,06,7.60
2009,04,21,06,07,7.50
2009,04,21,06,08,7.50
2009,04,21,06,09,7.50
2009,04,21,06,10,7.50
2009,04,21,06,11,7.40
2009,04,21,06,12,7.40
2009,04,21,06,13,7.40
2009,04,21,06,14,7.30
2009,04,21,06,15,7.30
2009,04,21,06,16,7.30
2009,04,21,06,17,7.30
2009,04,21,06,18,7.30
2009,04,21,06,19,7.30
2009,04,21,06,20,7.30
2009,04,21,06,21,7.30
2009,04,21,06,22,7.30
2009,04,21,06,23,7.30
2009,04,21,06,24,7.30
2009,04,21,06,25,7.30
2009,04,21,06,26,7.30
2009,04,21,06,27,7.30
2009,04,21,06,28,7.30
2009,04,21,06,29,7.30
2009,04,21,06,30,7.30
2009,04,21,06,31,7.30
2009,04,21,06,32,7.30
2009,04,21,06,33,7.30
2009,04,21,06,34,7.30
2009,04,21,06,35,7.30
2009,04,21,06,36,7.30
2009,04,21,06,37,7.30
2009,04,21,06,38,7.30
2009,04,21,06,39,7.30
2009,04,21,06,40,7.30
2009,04,21,06,41,7.30
2009,04,21,06,42,7.30
2009,04,21,06,43,7.30
2009,04,21,06,44,7.30
2009,04,21,06,45,7.30
2009,04,21,06,46,7.30
2009,04,21,06,47,7.30
2009,04,21,06,48,7.30
2009,04,21,06,49,7.30
2009,04,21,06,50,7.30
2009,04,21,06,51,7.40
2009,04,21,06,52,7.40
2009,04,21,06,53,7.50
2009,04,21,06,54,7.50
2009,04,21,06,55,7.60
2009,04,21,06,56,7.60
2009,04,21,06,57,7.60
2009,04,21,06,58,7.60
2009,04,21,06,59,7.70
2009,04,21,07,00,7.70
2009,04,21,07,01,7.70
2009,04,21,07,02,7.80
2009,04,21,07,03,7.80
2009,04,21,07,04,7.80
2009,04,21,07,05,7.80
2009,04,21,07,06,7.80
2009,04,21,07,07,7.80
2009,04,21,07,08,7.90
2009,04,21,07,09,7.90
2009,04,21,07,10,7.90
2009,04,21,07,11,8.00
2009,04,21,07,12,8.00
2009,04,21,07,13,8.10
2009,04,21,07,14,8.20
2009,04,21,07,15,8.20
2009,04,21,07,16,8.30
2009,04,21,07,17,8.30
2009,04,21,07,18,8.40
2009,04,21,07,19,8.40
2009,04,21,07,20,8.40
2009,04,21,07,21,8.50
2009,04,21,07,22,8.50
2009,04,21,07,23,8.60
2009,04,21,07,24,8.60
2009,04,21,07,25,8.70
2009,04,21,07,26,8.70
2009,04,21,07,27,8.70
2009,04,21,07,28,8.70
2009,04,21,07,29,8.80
2009,04,21,07,30,8.80
2009,04,21,07,31,8.90
2009,04,21,07,32,8.90
2009,04,21,07,33,9.00
2009,04,21,07,34,9.00
2009,04,21,07,35,9.00
2009,04,21,07,36,9.10
2009,04,21,07,37,9.10
2009,04,21,07,38,9.20
2009,04,21,07,39,9.20
2009,04,21,07,40,9.20
2009,04,21,07,41,9.20
2009,04,21,07,42,9.20
2009,04,21,07,43,9.20
2009,04,21,07,44,9.20
2009,04,21,07,45,9.20
2009,04,21,07,46,9.20
2009,04,21,07,47,9.20
2009,04,21,07,48,9.20
2009,04,21,07,49,9.20
2009,04,21,07,50,9.20
2009,04,21,07,51,9.20
2009,04,21,07,52,9.20
2009,04,21,07,53,9.20
2009,04,21,07,54,9.20
2009,04,21,07,55,9.20
2009,04,21,07,56,9.20
2009,04,21,07,57,9.30
2009,04,21,07,58,9.30
2009,04,21,07,59,9.30
2009,04,21,08,00,9.40
2009,04,21,08,01,9.40
2009,04,21,08,02,9.50
2009,04,21,08,03,9.50
2009,04,21,08,04,9.60
2009,04,21,08,05,9.70
2009,04,21,08,06,9.70
2009,04,21,08,07,9.80
2009,04,21,08,08,9.80
2009,04,21,08,09,9.90
2009,04,21,08,10,9.90
2009,04,21,08,11,10.00
2009,04,21,08,12,10.10
2009,04,21,08,13,10.20
2009,04,21,08,14,10.20
2009,04,21,08,15,10.30
2009,04,21,08,16,10.40
2009,04,21,08,17,10.50
2009,04,21,08,18,10.60
2009,04,21,08,19,10.80
2009,04,21,08,20,10.90
2009,04,21,08,21,11.00
2009,04,21,08,22,11.10
2009,04,21,08,23,11.10
2009,04,21,08,24,11.10
2009,04,21,08,25,11.30
2009,04,21,08,26,11.30
2009,04,21,08,27,11.40
2009,04,21,08,28,11.40
2009,04,21,08,29,11.50
2009,04,21,08,30,11.60
2009,04,21,08,31,11.60
2009,04,21,08,32,11.70
2009,04,21,08,33,11.80
2009,04,21,08,34,11.90
2009,04,21,08,35,12.00
2009,04,21,08,36,12.10
2009,04,21,08,37,12.20
2009,04,21,08,38,12.20
2009,04,21,08,39,12.20
2009,04,21,08,40,12.20
2009,04,21,08,41,12.20
2009,04,21,08,42,12.30
2009,04,21,08,43,12.30
2009,04,21,08,44,12.30
2009,04,21,08,45,12.30
2009,04,21,08,46,12.30
2009,04,21,08,47,12.30
2009,04,21,08,48,12.30
2009,04,21,08,49,12.30
2009,04,21,08,50,12.30
2009,04,21,08,51,12.40
2009,04,21,08,52,12.40
2009,04,21,08,53,12.50
2009,04,21,08,54,12.50
2009,04,21,08,55,12.50
2009,04,21,08,56,12.50
2009,04,21,08,57,12.50
2009,04,21,08,58,12.50
2009,04,21,08,59,12.40
2009,04,21,09,00,12.40
2009,04,21,09,01,12.30
2009,04,21,09,02,12.30
2009,04,21,09,03,12.30
2009,04,21,09,04,12.20
2009,04,21,09,05,12.20
2009,04,21,09,06,12.10
2009,04,21,09,07,12.10
2009,04,21,09,08,12.10
2009,04,21,09,09,12.10
2009,04,21,09,10,12.10
2009,04,21,09,11,12.10
2009,04,21,09,12,12.10
2009,04,21,09,13,12.10
2009,04,21,09,14,12.00
2009,04,21,09,15,12.00
2009,04,21,09,16,12.00
2009,04,21,09,17,12.00
2009,04,21,09,18,12.10
2009,04,21,09,19,12.10
2009,04,21,09,20,12.10
2009,04,21,09,21,12.20
2009,04,21,09,22,12.20
2009,04,21,09,23,12.20
2009,04,21,09,24,12.20
2009,04,21,09,25,12.20
2009,04,21,09,26,12.30
2009,04,21,09,27,12.30
2009,04,21,09,28,12.30
2009,04,21,09,29,12.30
2009,04,21,09,30,12.30
2009,04,21,09,31,12.40
2009,04,21,09,32,12.40
2009,04,21,09,33,12.50
2009,04,21,09,34,12.50
2009,04,21,09,35,12.50
2009,04,21,09,36,12.50
2009,04,21,09,37,12.50
2009,04,21,09,38,12.50
2009,04,21,09,39,12.50
2009,04,21,09,40,12.50
2009,04,21,09,41,12.60
2009,04,21,09,42,12.60
2009,04,21,09,43,12.60
2009,04,21,09,44,12.60
2009,04,21,09,45,12.60
2009,04,21,09,46,12.60
2009,04,21,09,47,12.60
2009,04,21,09,48,12.50
2009,04,21,09,49,12.50
2009,04,21,09,50,12.50
2009,04,21,09,51,12.40
2009,04,21,09,52,12.40
2009,04,21,09,53,12.40
2009,04,21,09,54,12.40
2009,04,21,09,55,12.50
2009,04,21,09,56,12.50
2009,04,21,09,57,12.50
2009,04,21,09,58,12.50
2009,04,21,09,59,12.50
2009,04,21,10,00,12.60
2009,04,21,10,01,12.60
2009,04,21,10,02,12.60
2009,04,21,10,03,12.50
2009,04,21,10,04,12.50
2009,04,21,10,05,12.50
2009,04,21,10,06,12.50
2009,04,21,10,07,12.50
2009,04,21,10,08,12.50
2009,04,21,10,09,12.50
2009,04,21,10,10,12.40
2009,04,21,10,11,12.30
2009,04,21,10,12,12.10
2009,04,21,10,13,12.00
2009,04,21,10,14,12.00
2009,04,21,10,15,11.90
2009,04,21,10,16,11.90
2009,04,21,10,17,11.80
2009,04,21,10,18,11.80
2009,04,21,10,19,11.80
2009,04,21,10,20,11.80
2009,04,21,10,21,11.70
2009,04,21,10,22,11.70
2009,04,21,10,23,11.70
2009,04,21,10,24,11.70
2009,04,21,10,25,11.60
2009,04,21,10,26,11.60
2009,04,21,10,27,11.60
2009,04,21,10,28,11.60
2009,04,21,10,29,11.60
2009,04,21,10,30,11.60
2009,04,21,10,31,11.60
2009,04,21,10,32,11.60
2009,04,21,10,33,11.60
2009,04,21,10,34,11.50
2009,04,21,10,35,11.40
2009,04,21,10,36,11.30
2009,04,21,10,37,11.30
2009,04,21,10,38,11.20
2009,04,21,10,39,11.20
2009,04,21,10,40,11.10
2009,04,21,10,41,11.20
2009,04,21,10,42,11.20
2009,04,21,10,43,11.20
2009,04,21,10,44,11.10
2009,04,21,10,45,11.10
2009,04,21,10,46,11.10
2009,04,21,10,47,11.10
2009,04,21,10,48,11.10
2009,04,21,10,49,11.10
2009,04,21,10,50,10.90
2009,04,21,10,51,10.90
2009,04,21,10,52,10.80
2009,04,21,10,53,10.70
2009,04,21,10,54,10.70
2009,04,21,10,55,10.80
2009,04,21,10,56,10.70
2009,04,21,10,57,10.80
2009,04,21,10,58,10.80
2009,04,21,10,59,10.70
2009,04,21,11,00,10.70
2009,04,21,11,01,10.70
2009,04,21,11,02,10.70
2009,04,21,11,03,10.70
2009,04,21,11,04,10.80
2009,04,21,11,05,10.80
2009,04,21,11,06,10.80
2009,04,21,11,07,10.90
2009,04,21,11,08,10.90
2009,04,21,11,09,11.00
2009,04,21,11,10,11.20
2009,04,21,11,11,11.30
2009,04,21,11,12,11.40
2009,04,21,11,13,11.40
2009,04,21,11,14,11.40
2009,04,21,11,15,11.60
2009,04,21,11,16,11.60
2009,04,21,11,17,11.60
2009,04,21,11,18,11.60
2009,04,21,11,19,11.60
2009,04,21,11,20,11.60
2009,04,21,11,21,11.60
2009,04,21,11,22,11.70
2009,04,21,11,23,11.80
2009,04,21,11,24,11.80
2009,04,21,11,25,11.90
2009,04,21,11,26,12.00
2009,04,21,11,27,12.20
2009,04,21,11,28,12.30
2009,04,21,11,29,12.50
2009,04,21,11,30,12.50
2009,04,21,11,31,12.50
2009,04,21,11,32,12.50
2009,04,21,11,33,12.60
2009,04,21,11,34,12.50
2009,04,21,11,35,12.50
2009,04,21,11,36,12.50
2009,04,21,11,37,12.40
2009,04,21,11,38,12.30
2009,04,21,11,39,12.30
2009,04,21,11,40,12.30
2009,04,21,11,41,12.30
2009,04,21,11,42,12.40
2009,04,21,11,43,12.50
2009,04,21,11,44,12.40
2009,04,21,11,45,12.30
2009,04,21,11,46,12.20
2009,04,21,11,47,12.10
2009,04,21,11,48,12.10
2009,04,21,11,49,12.00
2009,04,21,11,50,11.90
2009,04,21,11,51,11.90
2009,04,21,11,52,11.90
2009,04,21,11,53,12.00
2009,04,21,11,54,12.10
2009,04,21,11,55,12.20
2009,04,21,11,56,12.20
2009,04,21,11,57,12.20
2009,04,21,11,58,12.30
2009,04,21,11,59,12.30
2009,04,21,12,00,12.30
2009,04,21,12,01,12.30
2009,04,21,12,02,12.30
2009,04,21,12,03,12.30
2009,04,21,12,04,12.30
2009,04,21,12,05,12.30
2009,04,21,12,06,12.50
2009,04,21,12,07,12.50
2009,04,21,12,08,12.50
2009,04,21,12,09,12.50
2009,04,21,12,10,12.60
2009,04,21,12,11,12.70
2009,04,21,12,12,12.80
2009,04,21,12,13,12.80
2009,04,21,12,14,12.80
2009,04,21,12,15,12.80
2009,04,21,12,16,12.90
2009,04,21,12,17,13.00
2009,04,21,12,18,13.10
2009,04,21,12,19,13.20
2009,04,21,12,20,13.20
2009,04,21,12,21,13.10
2009,04,21,12,22,13.00
2009,04,21,12,23,12.90
2009,04,21,12,24,12.90
2009,04,21,12,25,12.80
2009,04,21,12,26,12.80
2009,04,21,12,27,12.70
2009,04,21,12,28,12.70
2009,04,21,12,29,12.70
2009,04,21,12,30,12.60
2009,04,21,12,31,12.60
2009,04,21,12,32,12.60
2009,04,21,12,33,12.60
2009,04,21,12,34,12.70
2009,04,21,12,35,12.60
2009,04,21,12,36,12.60
2009,04,21,12,37,12.60
2009,04,21,12,38,12.60
2009,04,21,12,39,12.60
2009,04,21,12,40,12.70
2009,04,21,12,41,12.80
2009,04,21,12,42,12.80
2009,04,21,12,43,12.80
2009,04,21,12,44,12.90
2009,04,21,12,45,13.00
2009,04,21,12,46,13.10
2009,04,21,12,47,13.20
2009,04,21,12,48,13.20
2009,04,21,12,49,13.20
2009,04,21,12,50,13.20
2009,04,21,12,51,13.20
2009,04,21,12,52,13.20
2009,04,21,12,53,13.20
2009,04,21,12,54,13.30
2009,04,21,12,55,13.50
2009,04,21,12,56,13.50
2009,04,21,12,57,13.60
2009,04,21,12,58,13.60
2009,04,21,12,59,13.60
2009,04,21,13,00,13.70
2009,04,21,13,01,13.70
2009,04,21,13,02,13.70
2009,04,21,13,03,13.80
2009,04,21,13,04,13.90
2009,04,21,13,05,14.00
2009,04,21,13,06,14.10
2009,04,21,13,07,14.20
2009,04,21,13,08,14.20
2009,04,21,13,09,14.20
2009,04,21,13,10,14.40
2009,04,21,13,11,14.40
2009,04,21,13,12,14.50
2009,04,21,13,13,14.50
2009,04,21,13,14,14.60
2009,04,21,13,15,14.70
2009,04,21,13,16,14.90
2009,04,21,13,17,15.00
2009,04,21,13,18,15.10
2009,04,21,13,19,15.10
2009,04,21,13,20,15.10
2009,04,21,13,21,15.20
2009,04,21,13,22,15.30
2009,04,21,13,23,15.30
2009,04,21,13,24,15.30
2009,04,21,13,25,15.50
2009,04,21,13,26,15.60
2009,04,21,13,27,15.80
2009,04,21,13,28,15.80
2009,04,21,13,29,15.60
2009,04,21,13,30,15.50
2009,04,21,13,31,15.50
2009,04,21,13,32,15.40
2009,04,21,13,33,15.50
2009,04,21,13,34,15.40
2009,04,21,13,35,15.20
2009,04,21,13,36,15.10
2009,04,21,13,37,15.10
2009,04,21,13,38,15.10
2009,04,21,13,39,15.10
2009,04,21,13,40,15.10
2009,04,21,13,41,15.20
2009,04,21,13,42,15.20
2009,04,21,13,43,15.30
2009,04,21,13,44,15.30
2009,04,21,13,45,15.40
2009,04,21,13,46,15.50
2009,04,21,13,47,15.50
2009,04,21,13,48,15.60
2009,04,21,13,49,15.60
2009,04,21,13,50,15.50
2009,04,21,13,51,15.50
2009,04,21,13,52,15.50
2009,04,21,13,53,15.50
2009,04,21,13,54,15.40
2009,04,21,13,55,15.30
2009,04,21,13,56,15.30
2009,04,21,13,57,15.40
2009,04,21,13,58,15.40
2009,04,21,13,59,15.50
2009,04,21,14,00,15.70
2009,04,21,14,01,15.80
2009,04,21,14,02,15.90
2009,04,21,14,03,16.20
2009,04,21,14,04,16.40
2009,04,21,14,05,16.50
2009,04,21,14,06,16.70
2009,04,21,14,07,16.90
2009,04,21,14,08,17.20
2009,04,21,14,09,17.60
2009,04,21,14,10,18.00
2009,04,21,14,11,18.30
2009,04,21,14,12,18.50
2009,04,21,14,13,18.80
2009,04,21,14,14,19.00
2009,04,21,14,15,19.10
2009,04,21,14,16,19.20
2009,04,21,14,17,19.40
2009,04,21,14,18,19.80
2009,04,21,14,19,20.10
2009,04,21,14,20,20.40
2009,04,21,14,21,20.70
2009,04,21,14,22,20.90
2009,04,21,14,23,21.00
2009,04,21,14,24,20.90
2009,04,21,14,25,21.00
2009,04,21,14,26,21.20
2009,04,21,14,27,21.30
2009,04,21,14,28,21.30
2009,04,21,14,29,21.30
2009,04,21,14,30,21.30
2009,04,21,14,31,21.30
2009,04,21,14,32,21.20
2009,04,21,14,33,21.30
2009,04,21,14,34,21.30
2009,04,21,14,35,21.40
2009,04,21,14,36,21.40
2009,04,21,14,37,21.30
2009,04,21,14,38,21.30
2009,04,21,14,39,21.30
2009,04,21,14,40,21.30
2009,04,21,14,41,21.30
2009,04,21,14,42,21.30
2009,04,21,14,43,21.30
2009,04,21,14,44,21.40
2009,04,21,14,45,21.40
2009,04,21,14,46,21.40
2009,04,21,14,47,21.40
2009,04,21,14,48,21.30
2009,04,21,14,49,21.30
2009,04,21,14,50,21.30
2009,04,21,14,51,21.40
2009,04,21,14,52,21.60
2009,04,21,14,53,21.60
2009,04,21,14,54,21.70
2009,04,21,14,55,21.70
2009,04,21,14,56,21.60
2009,04,21,14,57,21.60
2009,04,21,14,58,21.60
2009,04,21,14,59,21.50
2009,04,21,15,00,21.40
2009,04,21,15,01,21.40
2009,04,21,15,02,21.50
2009,04,21,15,03,21.60
2009,04,21,15,04,21.70
2009,04,21,15,05,21.70
2009,04,21,15,06,21.60
2009,04,21,15,07,21.60
2009,04,21,15,08,21.40
2009,04,21,15,09,21.40
2009,04,21,15,10,21.30
2009,04,21,15,11,21.30
2009,04,21,15,12,21.20
2009,04,21,15,13,21.20
2009,04,21,15,14,21.20
2009,04,21,15,15,21.30
2009,04,21,15,16,21.30
2009,04,21,15,17,21.30
2009,04,21,15,18,21.30
2009,04,21,15,19,21.10
2009,04,21,15,20,21.10
2009,04,21,15,21,21.20
2009,04,21,15,22,21.30
2009,04,21,15,23,21.30
2009,04,21,15,24,21.40
2009,04,21,15,25,21.50
2009,04,21,15,26,21.60
2009,04,21,15,27,21.60
2009,04,21,15,28,21.60
2009,04,21,15,29,21.40
2009,04,21,15,30,21.30
2009,04,21,15,31,21.40
2009,04,21,15,32,21.50
2009,04,21,15,33,21.60
2009,04,21,15,34,21.60
2009,04,21,15,35,21.50
2009,04,21,15,36,21.40
2009,04,21,15,37,21.30
2009,04,21,15,38,21.30
2009,04,21,15,39,21.30
2009,04,21,15,40,21.30
2009,04,21,15,41,21.20
2009,04,21,15,42,21.20
2009,04,21,15,43,21.20
2009,04,21,15,44,21.20
2009,04,21,15,45,21.20
2009,04,21,15,46,21.10
2009,04,21,15,47,21.10
2009,04,21,15,48,21.10
2009,04,21,15,49,21.10
2009,04,21,15,50,21.30
2009,04,21,15,51,21.40
2009,04,21,15,52,21.50
2009,04,21,15,53,21.60
2009,04,21,15,54,21.50
2009,04,21,15,55,21.40
2009,04,21,15,56,21.30
2009,04,21,15,57,21.30
2009,04,21,15,58,21.30
2009,04,21,15,59,21.00
2009,04,21,16,00,20.80
2009,04,21,16,01,20.60
2009,04,21,16,02,20.40
2009,04,21,16,03,20.50
2009,04,21,16,04,20.60
2009,04,21,16,05,20.60
2009,04,21,16,06,20.40
2009,04,21,16,07,20.20
2009,04,21,16,08,20.00
2009,04,21,16,09,19.90
2009,04,21,16,10,19.70
2009,04,21,16,11,19.60
2009,04,21,16,12,19.40
2009,04,21,16,13,19.20
2009,04,21,16,14,19.00
2009,04,21,16,15,18.90
2009,04,21,16,16,18.90
2009,04,21,16,17,18.90
2009,04,21,16,18,18.80
2009,04,21,16,19,18.80
2009,04,21,16,20,18.80
2009,04,21,16,21,18.70
2009,04,21,16,22,18.60
2009,04,21,16,23,18.50
2009,04,21,16,24,18.50
2009,04,21,16,25,18.50
2009,04,21,16,26,18.60
2009,04,21,16,27,18.60
2009,04,21,16,28,19.00
2009,04,21,16,29,19.20
2009,04,21,16,30,19.20
2009,04,21,16,31,19.10
2009,04,21,16,32,19.00
2009,04,21,16,33,18.90
2009,04,21,16,34,18.90
2009,04,21,16,35,18.90
2009,04,21,16,36,18.80
2009,04,21,16,37,18.60
2009,04,21,16,38,18.40
2009,04,21,16,39,18.30
2009,04,21,16,40,18.20
2009,04,21,16,41,18.20
2009,04,21,16,42,18.20
2009,04,21,16,43,18.20
2009,04,21,16,44,18.20
2009,04,21,16,45,18.20
2009,04,21,16,46,18.20
2009,04,21,16,47,18.10
2009,04,21,16,48,18.10
2009,04,21,16,49,18.00
2009,04,21,16,50,17.90
2009,04,21,16,51,17.90
2009,04,21,16,52,17.80
2009,04,21,16,53,17.80
2009,04,21,16,54,17.80
2009,04,21,16,55,17.90
2009,04,21,16,56,17.80
2009,04,21,16,57,17.80
2009,04,21,16,58,17.80
2009,04,21,16,59,17.80
2009,04,21,17,00,17.80
2009,04,21,17,01,17.90
2009,04,21,17,02,17.80
2009,04,21,17,03,17.70
2009,04,21,17,04,17.70
2009,04,21,17,05,17.80
2009,04,21,17,06,17.90
2009,04,21,17,07,17.90
2009,04,21,17,08,18.10
2009,04,21,17,09,18.20
2009,04,21,17,10,18.30
2009,04,21,17,11,18.40
2009,04,21,17,12,18.50
2009,04,21,17,13,18.60
2009,04,21,17,14,18.70
2009,04,21,17,15,18.80
2009,04,21,17,16,19.00
2009,04,21,17,17,19.10
2009,04,21,17,18,19.30
2009,04,21,17,19,19.50
2009,04,21,17,20,19.70
2009,04,21,17,21,19.90
2009,04,21,17,22,20.00
2009,04,21,17,23,20.20
2009,04,21,17,24,20.20
2009,04,21,17,25,20.30
2009,04,21,17,26,20.30
2009,04,21,17,27,20.40
2009,04,21,17,28,20.40
2009,04,21,17,29,20.40
2009,04,21,17,30,20.40
2009,04,21,17,31,20.40
2009,04,21,17,32,20.40
2009,04,21,17,33,20.40
2009,04,21,17,34,20.30
2009,04,21,17,35,20.30
2009,04,21,17,36,20.20